Air Quality Table

TIMESTAMP NO2 O3 PM2.5 TEMP HUM AIRPRES WS WD NO
2022-12-08 09:00 10.49 µg/m3 53.09 µg/m3 4.91 µg/m3 14.63 °C N/A 1,001.68 mbar 0.59 m/s 318.67 Deg 0.8 µg/m3
2022-12-08 01:00 21.55 µg/m3 23.85 µg/m3 23.36 µg/m3 15.67 °C N/A 1,000.66 mbar 0.42 m/s 316.1 Deg 1.12 µg/m3
2022-12-07 17:00 14.37 µg/m3 51.86 µg/m3 13.01 µg/m3 19.8 °C N/A 999.84 mbar 1.09 m/s 168.49 Deg 2.01 µg/m3
2022-12-07 09:00 7.24 µg/m3 56.56 µg/m3 5.29 µg/m3 17.87 °C N/A 1,000.56 mbar 1.26 m/s 304.73 Deg 0.63 µg/m3
2022-12-07 01:00 13.22 µg/m3 61.06 µg/m3 8.45 µg/m3 17.67 °C N/A 1,002.05 mbar 1.22 m/s 231.51 Deg 1.08 µg/m3
2022-12-06 17:00 24.45 µg/m3 55.84 µg/m3 11.22 µg/m3 18.27 °C N/A 1,004.55 mbar 1.81 m/s 208.36 Deg 19.02 µg/m3
2022-12-06 09:00 23.63 µg/m3 23.29 µg/m3 5.12 µg/m3 13.73 °C N/A 1,007.28 mbar 0.56 m/s 282.01 Deg 12.69 µg/m3
2022-12-06 01:00 39.79 µg/m3 13.32 µg/m3 13.67 µg/m3 14.16 °C N/A 1,009.39 mbar 0.47 m/s 270.38 Deg 21.69 µg/m3
2022-12-05 17:00 26.15 µg/m3 57.69 µg/m3 18.98 µg/m3 19.26 °C N/A 1,009.79 mbar 1 m/s 228.16 Deg 13.14 µg/m3
2022-12-05 09:00 33.47 µg/m3 20.37 µg/m3 10.22 µg/m3 13.48 °C N/A 1,009.61 mbar 0.59 m/s 292.58 Deg 38.29 µg/m3
2022-12-05 01:00 29.64 µg/m3 26.48 µg/m3 12.57 µg/m3 14.55 °C N/A 1,008.25 mbar 0.61 m/s 271.26 Deg 7.47 µg/m3
2022-12-04 17:00 8.11 µg/m3 73.79 µg/m3 13.5 µg/m3 19.54 °C N/A 1,005.37 mbar 1.8 m/s 273.31 Deg 1.7 µg/m3
2022-12-04 09:00 14.21 µg/m3 40.15 µg/m3 8.01 µg/m3 14.79 °C N/A 1,003.38 mbar 0.65 m/s 286.98 Deg 2.33 µg/m3
2022-12-04 01:00 5.5 µg/m3 74.14 µg/m3 10.87 µg/m3 18.48 °C N/A 1,001.25 mbar 2.53 m/s 234.21 Deg 0.61 µg/m3
2022-12-03 17:00 8.55 µg/m3 72.4 µg/m3 9.72 µg/m3 20.06 °C N/A 999.71 mbar 5 m/s 189.87 Deg 2.35 µg/m3
2022-12-03 09:00 8.55 µg/m3 74.16 µg/m3 5.68 µg/m3 17.58 °C N/A 1,002.02 mbar 3.6 m/s 173.65 Deg 1.4 µg/m3
2022-12-03 01:00 30.77 µg/m3 46.65 µg/m3 5.33 µg/m3 15.45 °C N/A 1,004.36 mbar 1.32 m/s 180.57 Deg 5.33 µg/m3
2022-12-02 17:00 32.29 µg/m3 50.31 µg/m3 11.24 µg/m3 16.83 °C N/A 1,005.57 mbar 2.5 m/s 179.96 Deg 13.81 µg/m3
2022-12-02 09:00 30.02 µg/m3 15.82 µg/m3 5.32 µg/m3 11.9 °C N/A 1,006.55 mbar 0.43 m/s 273.85 Deg 29.3 µg/m3
2022-12-02 01:00 35.43 µg/m3 14.21 µg/m3 7.6 µg/m3 12.45 °C N/A 1,005.79 mbar 0.47 m/s 291.32 Deg 5.36 µg/m3
2022-12-01 17:00 10.63 µg/m3 62.12 µg/m3 2.65 µg/m3 17.49 °C N/A 1,003.26 mbar 1.13 m/s 314.01 Deg 1.71 µg/m3
2022-12-01 09:00 13.66 µg/m3 53.98 µg/m3 -0.35 µg/m3 13.29 °C N/A 1,000.97 mbar 0.59 m/s 311.85 Deg 1.63 µg/m3
2022-12-01 01:00 7.7 µg/m3 64.02 µg/m3 -1.1 µg/m3 12.52 °C N/A 998.88 mbar 0.68 m/s 311.73 Deg 0.34 µg/m3
2022-11-30 17:00 17.64 µg/m3 59.4 µg/m3 0.22 µg/m3 13.4 °C N/A 996.67 mbar 1.08 m/s 300.6 Deg 2.85 µg/m3
2022-11-30 09:00 20.94 µg/m3 45.83 µg/m3 0.57 µg/m3 11.63 °C N/A 996.13 mbar 0.51 m/s 301.43 Deg 7.67 µg/m3
2022-11-30 01:00 22.56 µg/m3 54.69 µg/m3 2.78 µg/m3 12.38 °C N/A 995.88 mbar 0.83 m/s 278.51 Deg 1.49 µg/m3
2022-11-29 17:00 19.34 µg/m3 63.57 µg/m3 2.54 µg/m3 14.4 °C N/A 995.72 mbar 2.51 m/s 149.76 Deg 2.83 µg/m3
2022-11-29 09:00 18.4 µg/m3 59.77 µg/m3 1.96 µg/m3 13.37 °C N/A 998.35 mbar 1.93 m/s 162.51 Deg 1.66 µg/m3
2022-11-29 01:00 45.33 µg/m3 19.49 µg/m3 11.24 µg/m3 13.82 °C N/A 1,002.29 mbar 0.7 m/s 226.75 Deg 17.93 µg/m3
2022-11-28 17:00 12.73 µg/m3 68.55 µg/m3 2.16 µg/m3 16.62 °C N/A 1,004.12 mbar 1.95 m/s 248.84 Deg 2.82 µg/m3
2022-11-28 09:00 6.87 µg/m3 71.24 µg/m3 2.68 µg/m3 15.73 °C N/A 1,005.09 mbar 2.7 m/s 225.02 Deg 1.02 µg/m3
2022-11-28 01:00 2.19 µg/m3 77.89 µg/m3 2.93 µg/m3 15.55 °C N/A 1,003.57 mbar 5.34 m/s 167.89 Deg 0.33 µg/m3
2022-11-27 17:00 2.82 µg/m3 80.48 µg/m3 1.09 µg/m3 15.76 °C N/A 998.38 mbar 5.62 m/s 98.02 Deg 0.51 µg/m3
2022-11-27 09:00 2.47 µg/m3 76.64 µg/m3 -0.76 µg/m3 15.29 °C N/A 994.94 mbar 3.64 m/s 74.95 Deg 0.26 µg/m3
2022-11-27 01:00 4.95 µg/m3 70.37 µg/m3 -0.79 µg/m3 14.73 °C N/A 996.98 mbar 1.54 m/s 222.58 Deg 0.3 µg/m3
2022-11-26 17:00 13.85 µg/m3 61.42 µg/m3 0.21 µg/m3 15.37 °C N/A 1,000.03 mbar 1.1 m/s 257.17 Deg 1.9 µg/m3
2022-11-26 09:00 9.79 µg/m3 64.73 µg/m3 1.72 µg/m3 16.92 °C N/A 1,004.38 mbar 1.65 m/s 217.19 Deg 0.65 µg/m3
2022-11-26 01:00 45.2 µg/m3 19.31 µg/m3 8.29 µg/m3 14.87 °C N/A 1,008.41 mbar 0.45 m/s 284.54 Deg 11.58 µg/m3
2022-11-25 17:00 8.6 µg/m3 75.23 µg/m3 2.62 µg/m3 19.29 °C N/A 1,008.83 mbar 1.03 m/s 252.01 Deg 1.08 µg/m3
2022-11-25 09:00 N/A 57.88 µg/m3 0.98 µg/m3 15.25 °C N/A 1,008.15 mbar 0.54 m/s 310.72 Deg N/A
2022-11-25 01:00 N/A 75.47 µg/m3 2.51 µg/m3 16.69 °C N/A 1,006.01 mbar 1.07 m/s 328.98 Deg N/A
2022-11-24 17:00 N/A 72.42 µg/m3 3.97 µg/m3 19.64 °C N/A 1,003.41 mbar 1.94 m/s 320.13 Deg N/A
2022-11-24 09:00 N/A 57.22 µg/m3 2.85 µg/m3 18.36 °C N/A 1,000.83 mbar 1.77 m/s 321.05 Deg N/A
2022-11-24 01:00 N/A 68.86 µg/m3 0.76 µg/m3 17.74 °C N/A 999.53 mbar 2.2 m/s 315.68 Deg N/A
2022-11-23 17:00 N/A 76.68 µg/m3 2.51 µg/m3 18.63 °C N/A 998.28 mbar 2.62 m/s 308.22 Deg N/A
2022-11-23 09:00 N/A 77.91 µg/m3 0.82 µg/m3 15.86 °C N/A 998.69 mbar 1.84 m/s 312.82 Deg N/A
2022-11-23 01:00 N/A 82.86 µg/m3 1.92 µg/m3 16.46 °C N/A 999.50 mbar 2.52 m/s 309.21 Deg N/A
2022-11-22 17:00 N/A 80.45 µg/m3 7.61 µg/m3 18.54 °C N/A 997.32 mbar 4.14 m/s 295.58 Deg N/A
2022-11-22 09:00 N/A 87.07 µg/m3 2.47 µg/m3 18.03 °C N/A 999.72 mbar 4.66 m/s 265.88 Deg N/A
2022-11-22 01:00 N/A 83.63 µg/m3 0.42 µg/m3 17.41 °C N/A 1,004.72 mbar 2.01 m/s 287.7 Deg N/A
2022-11-21 17:00 N/A 78.14 µg/m3 1.51 µg/m3 17.68 °C N/A 1,005.37 mbar 1.7 m/s 323.8 Deg N/A
2022-11-21 09:00 N/A 77.24 µg/m3 1.09 µg/m3 15.93 °C N/A 1,003.95 mbar 1.67 m/s 328.61 Deg N/A
2022-11-21 01:00 N/A 80.28 µg/m3 0.38 µg/m3 16.58 °C N/A 1,001.60 mbar 1.8 m/s 321.92 Deg N/A
2022-11-20 17:00 N/A 80.5 µg/m3 2.56 µg/m3 15.96 °C N/A 998.02 mbar 2.11 m/s 311.57 Deg N/A
2022-11-20 09:00 N/A 57.21 µg/m3 9.68 µg/m3 17.88 °C N/A 996.85 mbar 1.48 m/s 271.52 Deg N/A
2022-11-20 01:00 N/A 68.44 µg/m3 14.46 µg/m3 21.09 °C N/A 997.88 mbar 1.95 m/s 258.94 Deg N/A
2022-11-19 17:00 N/A 68.24 µg/m3 8.69 µg/m3 23.08 °C N/A 997.47 mbar 2.86 m/s 237.37 Deg N/A
2022-11-19 09:00 N/A 61.61 µg/m3 8.7 µg/m3 20.46 °C N/A 998.36 mbar 1.63 m/s 222.41 Deg N/A
2022-11-19 01:00 14.3 µg/m3 48.49 µg/m3 7.67 µg/m3 20.01 °C N/A 999.51 mbar 1.01 m/s 264.91 Deg 1.16 µg/m3
2022-11-18 17:00 6.44 µg/m3 71.73 µg/m3 5.89 µg/m3 23.1 °C N/A 998.74 mbar 2.6 m/s 296 Deg 0.85 µg/m3
2022-11-18 09:00 5.47 µg/m3 69.17 µg/m3 2.17 µg/m3 20.49 °C N/A 998.40 mbar 2.02 m/s 294.67 Deg 0.16 µg/m3
2022-11-18 01:00 9.41 µg/m3 66.84 µg/m3 2.3 µg/m3 19.45 °C N/A 998.78 mbar 0.93 m/s 305.57 Deg -0.03 µg/m3
2022-11-17 17:00 9.14 µg/m3 72.35 µg/m3 7.57 µg/m3 21.4 °C N/A 997.37 mbar 1.78 m/s 302.72 Deg 0.92 µg/m3
2022-11-17 09:00 27.08 µg/m3 35.98 µg/m3 8.96 µg/m3 17.96 °C N/A 997.03 mbar 0.66 m/s 291.86 Deg 8.55 µg/m3
2022-11-17 01:00 18.22 µg/m3 47.36 µg/m3 7.87 µg/m3 18.95 °C N/A 997.79 mbar 0.58 m/s 276.84 Deg 0.29 µg/m3
2022-11-16 17:00 10.92 µg/m3 72.03 µg/m3 11.5 µg/m3 22.84 °C N/A 999.02 mbar 2.17 m/s 266.77 Deg 1.52 µg/m3
2022-11-16 09:00 11.57 µg/m3 65.41 µg/m3 3.54 µg/m3 20 °C N/A 1,002.32 mbar 1.35 m/s 226.51 Deg 0.92 µg/m3
2022-11-16 01:00 29.67 µg/m3 40.82 µg/m3 8.36 µg/m3 18.89 °C N/A 1,005.88 mbar 0.72 m/s 249.34 Deg 2.76 µg/m3
2022-11-15 17:00 13.91 µg/m3 63.17 µg/m3 7.31 µg/m3 22.18 °C N/A 1,007.59 mbar 1.48 m/s 263.71 Deg 1.81 µg/m3
2022-11-15 09:00 33.76 µg/m3 23.39 µg/m3 8.62 µg/m3 16.87 °C N/A 1,009.19 mbar 0.57 m/s 289.4 Deg 26.4 µg/m3
2022-11-15 01:00 25.58 µg/m3 29.41 µg/m3 5.95 µg/m3 17.63 °C N/A 1,010.25 mbar 0.79 m/s 284.73 Deg 2.32 µg/m3
2022-11-14 17:00 35.47 µg/m3 37.31 µg/m3 8.67 µg/m3 18.98 °C N/A 1,010.55 mbar 1.1 m/s 205.33 Deg 12.49 µg/m3
2022-11-14 09:00 24.11 µg/m3 37.25 µg/m3 4.99 µg/m3 18.53 °C N/A 1,009.77 mbar 0.53 m/s 227.42 Deg 4.12 µg/m3
2022-11-14 01:00 32 µg/m3 29.46 µg/m3 7.63 µg/m3 17.48 °C N/A 1,010.09 mbar 0.62 m/s 251.81 Deg 5.31 µg/m3
2022-11-13 17:00 12.23 µg/m3 67.89 µg/m3 4.07 µg/m3 20.98 °C N/A 1,009.03 mbar 0.68 m/s 235.67 Deg 1.47 µg/m3
2022-11-13 09:00 15.42 µg/m3 45.82 µg/m3 1.17 µg/m3 16.41 °C N/A 1,007.77 mbar 0.77 m/s 207.55 Deg 1.52 µg/m3
2022-11-13 01:00 17.78 µg/m3 47.36 µg/m3 N/A 16.23 °C N/A 1,008.59 mbar 0.87 m/s 227.98 Deg 1.3 µg/m3
2022-11-12 17:00 17.41 µg/m3 65.24 µg/m3 8.01 µg/m3 19.73 °C N/A 1,011.26 mbar 1.04 m/s 255.12 Deg 1.31 µg/m3
2022-11-12 09:00 19.55 µg/m3 57.56 µg/m3 7.41 µg/m3 18.6 °C N/A 1,013.42 mbar 0.76 m/s 221.09 Deg 6.99 µg/m3
2022-11-12 01:00 15.54 µg/m3 69.26 µg/m3 5.18 µg/m3 19.36 °C N/A 1,014.77 mbar 0.96 m/s 190.98 Deg -0 µg/m3
2022-11-11 17:00 10.95 µg/m3 79.98 µg/m3 2.28 µg/m3 21.23 °C N/A 1,014.51 mbar 2.12 m/s 219.11 Deg 1.24 µg/m3
2022-11-11 09:00 34.5 µg/m3 11.26 µg/m3 6.77 µg/m3 16.06 °C N/A 1,013.90 mbar 0.43 m/s 280.5 Deg 20.18 µg/m3
2022-11-11 01:00 50.69 µg/m3 8.02 µg/m3 10.79 µg/m3 17.18 °C N/A 1,012.56 mbar 0.43 m/s 274.78 Deg 11.29 µg/m3
2022-11-10 17:00 24.96 µg/m3 61.2 µg/m3 8.63 µg/m3 21.58 °C N/A 1,010.23 mbar 1.5 m/s 164.12 Deg 5.08 µg/m3
2022-11-10 09:00 39.21 µg/m3 10.97 µg/m3 7.36 µg/m3 15.87 °C N/A 1,009.16 mbar 0.38 m/s 276.86 Deg 24.15 µg/m3
2022-11-10 01:00 47.75 µg/m3 18.16 µg/m3 8.46 µg/m3 17.07 °C N/A 1,009.06 mbar 0.55 m/s 275.79 Deg 4.52 µg/m3
2022-11-09 17:00 19.21 µg/m3 71.49 µg/m3 7.79 µg/m3 21.46 °C N/A 1,009.15 mbar 1.55 m/s 202.57 Deg 4.43 µg/m3
2022-11-09 09:00 41.38 µg/m3 22.26 µg/m3 6.46 µg/m3 15.64 °C N/A 1,009.53 mbar 0.51 m/s 270.38 Deg 21.07 µg/m3
2022-11-09 01:00 52.7 µg/m3 11.88 µg/m3 8.86 µg/m3 16.54 °C N/A 1,009.51 mbar 0.41 m/s 284.32 Deg 19.58 µg/m3

It is to be noted that the data is provisional and subject to quality assurance procedures. For validated data kindly refer your request to contact.air@era.org.mt